Regional Weather Roundup
Issued by NWS

Home | Current Version | Previous Version | Graphics & Text | Print | Product List | Glossary On
Versions: 1 2 3 4 5 6 7 8 9 10 11 12 13 14 15 16 17 18 19 20 21 22 23 24 25 26 27 28 29 30 31 32 33 34 35 36 37 38 39 40 41 42 43 44 45 46 47 48 49 50
000
ASUS43 KBIS 291210
RWRND

NORTH DAKOTA REGIONAL WEATHER ROUNDUP
NATIONAL WEATHER SERVICE BISMARCK ND
700 AM CDT WED MAR 29 2017

NOTE: "FAIR" INDICATES FEW OR NO CLOUDS BELOW 12,000 FEET WITH NO
SIGNIFICANT WEATHER AND/OR OBSTRUCTIONS TO VISIBILITY.


NDZ001>003-009>011-017-291300-
NORTHWEST NORTH DAKOTA

CITY           SKY/WX    TMP DP  RH WIND       PRES   REMARKS
WILLISTON      FOG       32  32 100 SW5       30.06S VSB 1/4
6HR MIN TEMP:  31; 6HR MAX TEMP:  35;

MINOT          MOCLDY    45  41  86 SW9       30.06S
MINOT AFB      CLOUDY    38  37  99 SW3       30.05S
$$

NDZ018>021-031>035-040>046-291300-
SOUTHWEST NORTH DAKOTA

CITY           SKY/WX    TMP DP  RH WIND       PRES   REMARKS
BISMARCK       FAIR      35  34  96 E5        30.14S
6HR MIN TEMP:  34; 6HR MAX TEMP:  49;

DICKINSON      FOG       38  38 100 S12       30.06S VSB 1/2
GARRISON         N/A     38  36  92 CALM      30.09R
6HR MIN TEMP:  36; 6HR MAX TEMP:  42;

HETTINGER ARPT FOG       36  35  96 CALM      30.12S VSB 1/4
$$

NDZ004>008-012>016-024-026-027-054-291300-
NORTHEAST NORTH DAKOTA

CITY           SKY/WX    TMP DP  RH WIND       PRES   REMARKS
GRAND FORKS    MOCLDY    33  31  92 CALM      30.17S
GRND FRKS AFB  CLOUDY    30  30 100 SW3       30.17R
DEVILS LAKE    CLOUDY    36  35  96 S6        30.15S
$$

NDZ022-023-025-028>030-036>039-047>053-291300-
SOUTHEAST NORTH DAKOTA

CITY           SKY/WX    TMP DP  RH WIND       PRES   REMARKS
FARGO          CLOUDY    37  33  85 SE6       30.16F
6HR MIN TEMP:  35; 6HR MAX TEMP:  41;

JAMESTOWN      FOG       32  32 100 CALM      30.15S VSB 1/4
$$




USA.gov is the U.S. government's official web portal to all federal, state and local government web resources and services.